OPS 5712 (P/L 153)

Last updated on Fri Dec 29 2023 00:03:35 GMT+0000 (Coordinated Universal Time)

1 02874U 67053H 23361.90897205 .00000113 00000+0 12029-3 0 9998 2 02874 69.9731 248.8577 0010332 282.5964 77.3986 13.96536427880792
UTC large
Height (km)
Speed (km/s)
/
Latitude / Longitude
Inclination (degrees)
Orbital Period (minutes)
Azimuth
Elevation
Range (km)
Doppler Factor

Next 0 passes for location: London (51.5072 / 0.1276)

Sorry there are no passes over London.
OPS 5712 (P/L 153)